EW0395 Weather Reports


Display with metric or nautical units.
time (UTC)temp
F
wind
direction
speed
MPH
gust
MPH
rain 1hr
in
rain 24hr
in
rain mn
in
humidity
%
barometer
mb
20260503054544 33 0 0.0 0.0 0.00 0.34 0.00 98 1009.7
20260503053032 33 0 0.0 1.0 0.00 0.34 0.00 98 1009.7
20260503051532 33 0 0.0 1.0 0.00 0.34 0.00 98 1009.9
20260503050034 33 0 0.0 1.0 0.00 0.34 0.00 97 1010.1
20260503044539 34 0 0.0 1.0 0.00 0.34 0.00 97 1010.1
20260503043042 34 0 0.0 0.0 0.00 0.34 0.00 97 1010.3
20260503041532 34 0 0.0 0.0 0.00 0.34 0.00 97 1010.6
20260503040035 35 0 0.0 0.0 0.00 0.34 0.00 96 1010.6
20260503034532 35 0 0.0 0.0 0.00 0.34 0.34 96 1010.7
20260503033034 36 0 0.0 0.0 0.00 0.34 0.34 96 1011.0
20260503031534 37 0 0.0 0.0 0.00 0.34 0.34 96 1010.9
20260503030036 38 0 0.0 0.0 0.00 0.34 0.34 96 1011.0
20260503024537 38 0 0.0 0.0 0.00 0.34 0.34 96 1011.0
20260503023036 39 0 0.0 0.0 0.00 0.34 0.34 96 1011.1
20260503021535 39 0 0.0 0.0 0.00 0.34 0.34 96 1011.3
20260503020034 39 0 0.0 0.0 0.00 0.34 0.34 96 1011.4
20260503014531 39 0 0.0 0.0 0.00 0.34 0.34 96 1011.5
20260503013039 40 0 0.0 0.0 0.00 0.34 0.34 95 1011.2
20260503011533 41 0 0.0 1.0 0.00 0.34 0.34 96 1011.2
20260503010031 42 0 0.0 1.0 0.00 0.34 0.34 97 1010.9
20260503004600 42 0 0.0 0.0 0.00 0.34 0.34 97 1010.7
20260503003044 42 0 0.0 0.0 0.00 0.34 0.34 97 1010.5
20260503001541 43 0 0.0 0.0 0.00 0.34 0.34 96 1010.3
20260503000041 43 0 0.0 0.0 0.00 0.34 0.34 96 1010.1
20260502234543 43 0 0.0 0.0 0.00 0.34 0.34 96 1010.0
20260502233039 44 0 0.0 0.0 0.00 0.34 0.34 95 1010.0
20260502231535 44 0 0.0 0.0 0.00 0.34 0.34 94 1009.9
20260502230037 44 0 0.0 0.0 0.00 0.34 0.34 93 1009.9
20260502224543 45 0 0.0 1.0 0.00 0.34 0.34 93 1009.8
20260502223042 45 0 0.0 0.0 0.00 0.34 0.34 92 1009.8
20260502221533 46 0 0.0 0.0 0.00 0.34 0.34 92 1009.8
20260502220035 47 0 0.0 0.0 0.00 0.34 0.34 92 1009.6
20260502214532 47 0 0.0 1.0 0.00 0.34 0.34 91 1009.7
20260502213031 47 0 0.0 0.0 0.00 0.34 0.34 90 1009.6
20260502211534 47 0 0.0 0.0 0.01 0.34 0.34 88 1009.7
20260502210037 49 0 0.0 2.0 0.02 0.34 0.34 87 1009.7
20260502204533 47 0 0.0 1.0 0.03 0.34 0.34 92 1009.7
20260502203038 47 154 0.0 3.0 0.05 0.34 0.34 93 1009.7
20260502201533 45 0 0.0 0.0 0.06 0.33 0.33 94 1009.8
20260502200032 45 0 0.0 1.0 0.08 0.32 0.32 92 1009.9
20260502194533 44 229 0.0 1.0 0.11 0.31 0.31 93 1010.0
20260502193033 45 173 0.0 3.0 0.09 0.29 0.29 93 1010.1
20260502191531 46 146 0.0 1.0 0.07 0.27 0.27 92 1010.1
20260502190037 46 0 0.0 3.0 0.04 0.24 0.24 92 1010.0
20260502184530 47 153 0.0 1.0 0.00 0.20 0.20 90 1010.1
20260502183035 48 0 0.0 1.0 0.00 0.20 0.20 87 1010.2
20260502181542 49 109 0.0 3.0 0.00 0.20 0.20 83 1010.2
20260502163046 46 0 0.0 1.0 0.04 0.20 0.20 93 1010.5
20260502161533 46 0 0.0 1.0 0.04 0.20 0.20 95 1010.6
20260502151548 44 0 0.0 0.0 0.04 0.16 0.16 94 1010.9
20260502123038 41 0 0.0 0.0 0.00 0.11 0.11 98 1011.5
20260502121530 41 0 0.0 0.0 0.00 0.11 0.11 98 1011.4
20260502114533 40 0 0.0 0.0 0.00 0.12 0.11 98 1011.1
20260502113031 40 0 0.0 0.0 0.00 0.12 0.11 98 1011.2
20260502111530 40 0 0.0 0.0 0.00 0.12 0.11 98 1011.4
20260502110032 40 0 0.0 0.0 0.00 0.12 0.11 98 1011.1
20260502104535 40 0 0.0 0.0 0.00 0.12 0.11 98 1010.8
20260502103029 39 0 0.0 0.0 0.00 0.12 0.11 98 1010.9
20260502101532 39 0 0.0 0.0 0.01 0.12 0.11 97 1011.1
20260502091530 39 0 0.0 0.0 0.03 0.11 0.10 97 1011.0
20260502070042 39 0 0.0 0.0 0.04 0.06 0.05 95 1011.2
20260502064535 39 0 0.0 0.0 0.05 0.06 0.05 95 1011.7